ZSMRH FALA-FALE

Flight info

Callsign ZSMRH
Flight time N/A
Altitude 41000
Route JSV DCT APDAK UQ48 APMAT APMAT1B
Aircraft C750/M-SBDE3FGHRWXY/S

Departure

Time 2026-04-27 11:12
Airport Lanseria International Airport (FALA)

Arrival

Time N/A
Airport King Shaka International Airport (FALE)
Time Latitude Longitude Altitude Speed Heading
2026-04-27 11:07 -25.94756 27.91491 4518 ft 0 kts 136°
2026-04-27 11:10 -25.94762 27.91498 4517 ft 6 kts 136°
2026-04-27 11:11 -25.94804 27.91560 4516 ft 11 kts 92°
2026-04-27 11:11 -25.94769 27.91616 4515 ft 9 kts 50°
2026-04-27 11:11 -25.94732 27.91665 4515 ft 8 kts 49°
2026-04-27 11:11 -25.94696 27.91708 4515 ft 7 kts 47°
2026-04-27 11:12 -25.94648 27.91763 4515 ft 22 kts 46°
2026-04-27 11:12 -25.94298 27.92183 4514 ft 126 kts 48°
2026-04-27 11:12 -25.93591 27.93019 4796 ft 158 kts 45°
2026-04-27 11:12 -25.92819 27.93932 5508 ft 164 kts 44°
2026-04-27 11:13 -25.91998 27.94866 6138 ft 178 kts 43°
2026-04-27 11:13 -25.91003 27.95823 6344 ft 209 kts 24°
2026-04-27 11:13 -25.89437 27.95917 6507 ft 245 kts 341°
2026-04-27 11:13 -25.88067 27.94773 7139 ft 253 kts 305°
2026-04-27 11:14 -25.87578 27.92955 8336 ft 249 kts 268°
2026-04-27 11:14 -25.88198 27.91170 9364 ft 256 kts 232°
2026-04-27 11:14 -25.89718 27.90133 10354 ft 266 kts 198°
2026-04-27 11:14 -25.91575 27.90083 11340 ft 272 kts 175°
2026-04-27 11:15 -25.93406 27.90717 12304 ft 277 kts 163°
2026-04-27 11:15 -25.95176 27.91553 13239 ft 282 kts 161°
2026-04-27 11:15 -25.96900 27.92697 13877 ft 303 kts 140°
2026-04-27 11:15 -25.98092 27.94669 14736 ft 310 kts 121°
2026-04-27 11:16 -25.99068 27.96831 15569 ft 317 kts 119°
2026-04-27 11:16 -26.00085 27.99032 16335 ft 323 kts 122°
2026-04-27 11:16 -26.01248 28.01196 17131 ft 328 kts 125°
2026-04-27 11:16 -26.02456 28.03377 17954 ft 334 kts 124°
2026-04-27 11:17 -26.03623 28.05606 18735 ft 342 kts 123°
2026-04-27 11:17 -26.04823 28.07948 19288 ft 359 kts 123°
2026-04-27 11:17 -26.06128 28.10435 19450 ft 386 kts 124°
2026-04-27 11:17 -26.07545 28.13101 19534 ft 414 kts 123°
2026-04-27 11:18 -26.09039 28.15951 19596 ft 439 kts 123°
2026-04-27 11:18 -26.10575 28.18920 20307 ft 443 kts 122°
2026-04-27 11:18 -26.12127 28.21896 21058 ft 448 kts 123°
2026-04-27 11:18 -26.13718 28.24916 21722 ft 454 kts 123°
2026-04-27 11:19 -26.15319 28.27970 22423 ft 459 kts 123°
2026-04-27 11:19 -26.16926 28.31063 23102 ft 464 kts 123°
2026-04-27 11:19 -26.18554 28.34190 23745 ft 469 kts 123°
2026-04-27 11:19 -26.20205 28.37347 24382 ft 474 kts 123°
2026-04-27 11:20 -26.21877 28.40550 24994 ft 480 kts 123°
2026-04-27 11:20 -26.23537 28.43742 25568 ft 486 kts 123°
2026-04-27 11:20 -26.25246 28.47030 26123 ft 492 kts 123°
2026-04-27 11:20 -26.26971 28.50346 26718 ft 497 kts 124°
2026-04-27 11:21 -26.28714 28.53699 27262 ft 503 kts 124°
2026-04-27 11:21 -26.30475 28.57094 27810 ft 508 kts 124°
2026-04-27 11:21 -26.32255 28.60522 28368 ft 513 kts 124°
2026-04-27 11:21 -26.34055 28.63989 28844 ft 520 kts 124°
2026-04-27 11:22 -26.35874 28.67503 29371 ft 524 kts 124°
2026-04-27 11:22 -26.37702 28.71039 29842 ft 529 kts 125°
2026-04-27 11:22 -26.39547 28.74608 30300 ft 534 kts 125°
2026-04-27 11:22 -26.41416 28.78218 30766 ft 539 kts 125°
2026-04-27 11:23 -26.43290 28.81850 31287 ft 541 kts 125°
2026-04-27 11:23 -26.45162 28.85486 31945 ft 539 kts 125°
2026-04-27 11:23 -26.47004 28.89063 32585 ft 538 kts 125°
2026-04-27 11:23 -26.48871 28.92682 33197 ft 537 kts 125°
2026-04-27 11:24 -26.50736 28.96301 33810 ft 537 kts 125°
2026-04-27 11:24 -26.52596 28.99921 34396 ft 536 kts 125°
2026-04-27 11:24 -26.54499 29.03487 34997 ft 531 kts 129°
2026-04-27 11:24 -26.56739 29.06715 35632 ft 521 kts 138°
2026-04-27 11:25 -26.59272 29.09561 36320 ft 512 kts 144°
2026-04-27 11:25 -26.61871 29.12238 36920 ft 506 kts 144°
2026-04-27 11:25 -26.64443 29.15003 36954 ft 521 kts 142°
2026-04-27 11:25 -26.66968 29.17919 36958 ft 534 kts 140°
2026-04-27 11:26 -26.72320 29.23879 36952 ft 550 kts 143°
2026-04-27 11:26 -26.77846 29.29973 36938 ft 564 kts 141°
2026-04-27 11:27 -26.83387 29.36196 36931 ft 564 kts 142°
2026-04-27 11:27 -26.88978 29.42367 36921 ft 566 kts 141°
2026-04-27 11:28 -26.94908 29.47983 36902 ft 553 kts 153°
2026-04-27 11:28 -27.01287 29.52801 36908 ft 554 kts 153°
2026-04-27 11:29 -27.07593 29.57846 36894 ft 557 kts 152°
2026-04-27 11:29 -27.13920 29.62729 36895 ft 556 kts 153°
2026-04-27 11:30 -27.20253 29.67737 36884 ft 556 kts 152°
2026-04-27 11:30 -27.26581 29.72804 36874 ft 559 kts 152°
2026-04-27 11:31 -27.32875 29.77960 36859 ft 556 kts 155°
2026-04-27 11:31 -27.39448 29.82460 36865 ft 554 kts 157°
2026-04-27 11:32 -27.45755 29.87476 36851 ft 562 kts 150°
2026-04-27 11:32 -27.52161 29.92570 36848 ft 557 kts 155°
2026-04-27 11:33 -27.58556 29.97465 36848 ft 562 kts 152°
2026-04-27 11:33 -27.64915 30.02578 36851 ft 558 kts 154°
2026-04-27 11:34 -27.71194 30.07425 36721 ft 522 kts 154°
2026-04-27 11:34 -27.74072 30.09758 36368 ft 498 kts 154°
2026-04-27 11:34 -27.76900 30.11989 35120 ft 495 kts 155°